Regional Weather Roundup
Issued by NWS

Home | Current Version | Previous Version | Text Only | Print | Product List | Glossary On
Versions: 1 2 3 4 5 6 7 8 9 10 11 12 13 14 15 16 17 18 19 20 21 22 23 24 25 26 27 28 29 30 31 32 33 34 35 36 37 38 39 40 41 42 43 44 45 46 47 48 49 50
000
ASUS42 KTBW 032116
RWRFL
FLORIDA REGIONAL WEATHER ROUNDUP
NATIONAL WEATHER SERVICE TAMPA BAY RUSKIN FL
500 PM EDT SUN MAY 03 2015

NOTE: "FAIR" INDICATES FEW OR NO CLOUDS BELOW 12,000 FEET WITH NO
SIGNIFICANT WEATHER AND/OR OBSTRUCTIONS TO VISIBILITY.


FLZ001>010-012>015-112-114-115-032200-
PANHANDLE FLORIDA

CITY           SKY/WX    TMP DP  RH WIND       PRES   REMARKS
PENSACOLA      SUNNY     77  62  59 SE12      30.12F
PENSACOLA NAS  MOSUNNY   76  62  62 SE10      30.11F
MILTON NAS     MOSUNNY   80  58  46 S10       30.11F
CRESTVIEW      SUNNY     82  56  40 S10       30.12F
VALPARAISO     MOSUNNY   78  63  60 S10       30.12F
MARY ESTHER    SUNNY     76  62  59 SE13      30.11F
PANAMA CITY    FAIR      80  61  52 S13       30.10F
APALACHICOLA   SUNNY     80  61  52 SE13      30.12F

STATION/POSITION SKY/WX   TEMP    WIND        PRES    WAVE   SWELL
                          AIR SEA DIR/SP/G            HT/PER HT/PER
                          (F)     (DEG/KT/KT) (MB)    (FT/S) (FT/S)
30.1N   87.6W              73 76  100/ 10/ 12 1019.3F   1/ 3
29.2N   88.2W              74 76   90/  6/  8 1019.4F   1/ 4
28.8N   86.0W              74 75  110/ 16/ 17 1019.5F   4/ 6
PANAMA CITY BEAC           74 75  180/ 10/ 12 1019.9F
CAPE SAN BLAS    NOT AVBL
TOWER C                    72     120/ 11/ 12 1020.0F
28.5N   84.5W              75 75   90/ 14/ 16 1019.6F   3/ 5

$$
FLZ011-016>038-118-127-128-134-139-239-032200-
NORTH FLORIDA

CITY           SKY/WX    TMP DP  RH WIND       PRES   REMARKS
MARIANNA       MOSUNNY   81  52  36 SW6       30.10F
TALLAHASSEE    MOSUNNY   84  48  28 SE5       30.11F
PERRY          MOSUNNY   82  44  26 NE3       30.12S
CROSS CITY       N/A     85  48  27 NE7       30.10F
LAKE CITY      FAIR      81  48  32 E5        30.12F
GAINESVILLE    MOSUNNY   80  48  32 VRB7      30.12F
MAYPORT NAS    SUNNY     77  55  46 NE8       30.17F
JACKSONVILLE   MOSUNNY   78  49  35 E10       30.15F
JAX NAS        MOSUNNY   81  47  30 E9        30.16F
JAX CRAIG      SUNNY     78  50  37 SE13      30.16F
JAX CECIL      SUNNY     79  48  34 E10       30.15F
FERNANDINA BEA FAIR      81  50  34 E8        30.16S
ST AUGUSTINE   SUNNY     77  55  46 E12       30.17F

STATION/POSITION SKY/WX   TEMP    WIND        PRES    WAVE   SWELL
                          AIR SEA DIR/SP/G            HT/PER HT/PER
                          (F)     (DEG/KT/KT) (MB)    (FT/S) (FT/S)
SHELL POINT                76     180/  7/  9   N/A
KEATON BEACH               76     270/  8/  9 1019.6F
CEDAR KEY                  79      70/  8/ 11 1019.6F
FERNANDINA                 76 73  120/  5/  8 1021.2F
30.7N   81.3W                 76                N/A     2/13   2/13
MAYPORT                    73 73   60/  8/  9 1021.8F
31.4N   80.9W              72 74  190/  2/  4 1022.1F   3/11   3/11
ST AUGUSTINE               73 73   80/  9/ 10 1022.1F

$$
FLZ040-043>046-052-053-057-058-063-144-032200-
INTERIOR CENTRAL FLORIDA

CITY           SKY/WX    TMP DP  RH WIND       PRES   REMARKS
OCALA          MOSUNNY   82  48  30 E7        30.11F
THE VILLAGES     N/A     82  55  39 NE9       30.01S
LEESBURG       SUNNY     83  49  30 E9        30.12F
SANFORD        SUNNY     81  54  39 E15G21    30.12F
ORLANDO EXEC   MOSUNNY   80  54  40 E13       30.11F
ORLANDO INTL   MOSUNNY   80  56  43 E17       30.11F
KISSIMMEE      PTSUNNY   81  54  39 E14       30.11F
WINTER HAVEN   SUNNY     85  54  34 E13       30.10F
LAKELAND       SUNNY     82  54  36 E13       30.09F
BARTOW         MOSUNNY   79  55  44 E9        30.10F
OKEECHOBEE     SUNNY     79  54  41 E6        30.10F

$$
FLZ041-047-054-059-064-141-147-032200-
EAST CENTRAL FLORIDA

CITY           SKY/WX    TMP DP  RH WIND       PRES   REMARKS
ORMOND BEACH   SUNNY     75  52  43 E15       30.15F
DAYTONA BEACH  MOSUNNY   78  56  46 E15       30.15F
DELAND           N/A     79  50  36 E12G17    30.15S
NEW SMYRNA BEA MOSUNNY   79  54  41 E12G17    30.16F
JFK SPACE CTR  MOSUNNY   79  57  48 E10       30.12F
TITUSVILLE     MOSUNNY   79  57  47 E17       30.13F
CAPE CANAVERAL SUNNY     78  57  47 E14       30.12F
MELBOURNE      SUNNY     79  55  43 E16       30.12F
VERO BEACH     SUNNY     80  54  40 E12       30.12F
FT PIERCE      MOSUNNY   80  60  50 E14       30.11F
STUART         PTSUNNY   79  59  50 E15G22    30.12F

STATION/POSITION SKY/WX   TEMP    WIND        PRES    WAVE   SWELL
                          AIR SEA DIR/SP/G            HT/PER HT/PER
                          (F)     (DEG/KT/KT) (MB)    (FT/S) (FT/S)
28.5N   80.2W              75 78   80/ 12/ 14 1020.8F
28.9N   78.5W              73 79   60/ 10/ 12 1021.4F
TRIDENT PIER               78 78   90/ 10/ 13 1021.0F
28.4N   80.5W                 77                N/A     3/11   2/11
27.5N   80.2W                 78                N/A     4/12   2/12

$$
FLZ050-056-061-142-242-148-248-149-249-151-251-155-255-
160-260-032200-
WEST CENTRAL FLORIDA

CITY           SKY/WX    TMP DP  RH WIND       PRES   REMARKS
CRYSTAL RIVER  FAIR      82  46  28 SE6       30.09F
INVERNESS      FAIR     N/A N/A N/A E9        30.10F
BROOKSVILLE    SUNNY     83  44  25 SE7       30.10F
CLEARWATER     SUNNY     83  48  29 E6        30.08F
TAMPA INTL     MOSUNNY   84  41  21 E5        30.09F
TAMPA EXEC     SUNNY     86  46  25 E10       30.09F
PLANT CITY     SUNNY     84  54  34 E8        30.10F
MACDILL AFB    SUNNY     84  48  28 E8G17     30.07F
PETER O KNIGHT SUNNY     86  46  25 E9        30.08F
ST PETERSBURG  SUNNY     82  53  36 E9        30.06F
SARASOTA       SUNNY     85  47  26 E13       30.05F
VENICE         FAIR      84  48  28 E13G20    30.07S

STATION/POSITION SKY/WX   TEMP    WIND        PRES    WAVE   SWELL
                          AIR SEA DIR/SP/G            HT/PER HT/PER
                          (F)     (DEG/KT/KT) (MB)    (FT/S) (FT/S)
CEDAR KEY                  79      70/  8/ 11 1019.6F
28.5N   84.5W              75 75   90/ 14/ 16 1019.6F   3/ 5
27.3N   84.2W                 77                N/A     5/ 7
CLEARWATER BEACH           81 76  100/  9/ 11 1018.8F
MIDDLE TAMPA BAY           79      50/  8/ 12 1019.0F
VENICE                     82 79   70/  8/ 12 1017.7F

$$
FLZ066-069-070-075>078-162-262-165-265-032200-
SOUTHWEST FLORIDA AND KEYS

CITY           SKY/WX    TMP DP  RH WIND       PRES   REMARKS
PUNTA GORDA    PTSUNNY   80  53  39 E13       30.08S
FT MYERS       PTSUNNY   83  54  36 E15G23    30.05F
SOUTHWEST INTL SUNNY     83  55  38 E14       30.05F
NAPLES         MOSUNNY   84  52  33 E12G20    30.04F
MARCO ISLAND   MOCLDY    84  54  34 E16G24    30.05S
IMMOKALEE      MOCLDY   N/A N/A N/A E13G20    30.07S
MARATHON       MOSUNNY   80  63  55 E16G23    30.05F
KEY WEST NAS   PTSUNNY   81  63  54 E21       30.05R
KEY WEST INTL  MOSUNNY   80  64  58 E18G25    30.05S

STATION/POSITION SKY/WX   TEMP    WIND        PRES    WAVE   SWELL
                          AIR SEA DIR/SP/G            HT/PER HT/PER
                          (F)     (DEG/KT/KT) (MB)    (FT/S) (FT/S)
VENICE                     82 79   70/  8/ 12 1017.7F
NAPLES                     82 78   90/  7/ 14 1017.5F
26.0N   85.6W              77 80   90/ 19/ 23 1017.1S   7/ 7
DRY TORTUGAS               77      90/ 23/ 26 1016.9F
NW FL BAY                  78     110/ 18/ 22 1017.9
SAND KEY                   77      90/ 21/ 25 1017.2S
SOMBRERO KEY               78      80/ 20/ 22 1017.6S
LONG KEY                   77 78   90/ 14/ 17 1018.4F
MOLASSES REEF              76 80   80/ 20/ 22 1017.6F

$$
FLZ067-068-071>074-168-172>174-032200-
SOUTHEAST FLORIDA

CITY           SKY/WX    TMP DP  RH WIND       PRES   REMARKS
W PALM BEACH   LGT RAIN  77  60  55 E16       30.11F
FT LAUDER-EXEC MOSUNNY   80  58  46 E17G23    30.08F
FT LAUDERDALE  MOSUNNY   80  58  46 E15G24    30.08F
POMPANO BEACH  MOSUNNY   79  57  46 NE14      30.09F
PEMBROKE PINES MOSUNNY   80  58  46 E20G25    30.10F
OPA LOCKA      MOSUNNY   80  60  50 E17       30.08F
MIAMI          MOSUNNY   81  57  43 E15G25    30.08F
WEST KENDALL   SUNNY     81  58  45 E20G29    30.07F
HOMESTEAD      SUNNY     79  61  54 NE16G23   30.07S

STATION/POSITION SKY/WX   TEMP    WIND        PRES    WAVE   SWELL
                          AIR SEA DIR/SP/G            HT/PER HT/PER
                          (F)     (DEG/KT/KT) (MB)    (FT/S) (FT/S)
PORT EVERGLADES            77      70/ 12/ 18 1018.8F
VIRGINIA KEY               77 79   60/ 14/ 19 1018.2F
LAKE WORTH                 75 80   80/ 13/ 17 1019.1F
SETTLEMENT POINT           74      60/ 19/ 21 1020.4S

$$




USA.gov is the U.S. government's official web portal to all federal, state and local government web resources and services.